Weather History for Sault Ste Marie, MI

Change the Weather History Date:

Friday, October 21, 2011

  Actual Average Record
Temperature  
Mean Temperature 41 °F 44 °F  
Max Temperature 48 °F 51 °F 70 °F (1978)
Min Temperature 34 °F 36 °F 18 °F (1895)
Degree Days  
Heating Degree Days 24 21  
Month to date heating degree days 241 371  
Since 1 July heating degree days 482 772  
Cooling Degree Days 0 0  
Month to date cooling degree days 3 0  
Year to date cooling degree days 255 195  
Moisture  
Dew Point 32 °F    
Average Humidity 75    
Maximum Humidity 89    
Minimum Humidity 60    
Precipitation  
Precipitation 0.00 in 0.12 in 0.97 in (1993)
Month to date precipitation 3.26 2.63  
Year to date precipitation 31.42 25.62  
Snow  
Snow 0.00 in 0.00 in 3.00 in (1895)
Month to date snowfall 0.0 0.5  
Since 1 July snowfall T 0.5  
Snow Depth 0.00 in    
Sea Level Pressure  
Sea Level Pressure 29.86 in    
Wind  
Wind Speed 10 mph (NW)    
Max Wind Speed 18 mph    
Max Gust Speed 25 mph    
Visibility 10 miles    
Events      
T = Trace of Precipitation, MM = Missing Value Source: NWS Daily Summary

Daily Weather History Graph

Daily Weather History Graph

Search for Another Location

Airport:

Trip Planner

Search our weather history database for the weather conditions in past years. The results will help you decide how hot, cold, wet, or windy it might be!

Date:

Astronomy

Oct. 21, 2011 Rise Set
Actual Time 8:02 AM EDT 6:40 PM EDT
Civil Twilight 7:32 AM EDT 7:11 PM EDT
Nautical Twilight 6:57 AM EDT 7:46 PM EDT
Astronomical Twilight 6:22 AM EDT 8:21 PM EDT
Moon 1:30 AM EDT (10/21) 3:43 PM EDT (10/21)
Length of Visible Light 11h 39m
Length of Day
10h 37m
Waning Crescent, 34% of the Moon is Illuminated
Oct 21
Waning Crescent
Oct 26
New
Nov 2
First Quarter
Nov 10
Full
Nov 18
Last Quarter

Hourly Weather History & Observations

Time (EDT) Temp. Windchill Dew Point Humidity Pressure Visibility Wind Dir Wind Speed Gust Speed Precip Events Conditions
12:36 AM 42.8 °F 38.0 °F 33.8 °F 70% 29.67 in 10.0 mi NNW 8.1 mph - N/A   Overcast
12:55 AM 43.0 °F 37.7 °F 33.1 °F 68% 29.69 in 10.0 mi NNW 9.2 mph - N/A   Overcast
1:20 AM 42.8 °F 36.2 °F 33.8 °F 70% 29.69 in 10.0 mi NNW 12.7 mph 19.6 mph N/A   Overcast
1:55 AM 43.0 °F 36.8 °F 32.0 °F 65% 29.70 in 10.0 mi NNW 11.5 mph - N/A   Overcast
2:50 AM 42.8 °F 37.0 °F 32.0 °F 66% 29.71 in 10.0 mi NNW 10.4 mph 17.3 mph N/A   Overcast
2:55 AM 43.0 °F 37.2 °F 32.0 °F 65% 29.72 in 10.0 mi NNW 10.4 mph - N/A   Overcast
3:15 AM 42.8 °F 35.8 °F 32.0 °F 66% 29.71 in 10.0 mi NNW 13.8 mph - N/A   Overcast
3:55 AM 42.1 °F 37.1 °F 32.0 °F 67% 29.73 in 10.0 mi NNW 8.1 mph 17.3 mph N/A   Mostly Cloudy
4:55 AM 41.0 °F 37.1 °F 30.9 °F 67% 29.75 in 10.0 mi North 5.8 mph - N/A   Overcast
5:09 AM 41.0 °F 38.0 °F 30.2 °F 65% 29.75 in 10.0 mi North 4.6 mph - N/A   Overcast
5:17 AM 41.0 °F 37.1 °F 30.2 °F 65% 29.75 in 10.0 mi NW 5.8 mph - N/A   Overcast
5:55 AM 39.9 °F 33.9 °F 32.0 °F 73% 29.78 in 10.0 mi NW 9.2 mph - N/A   Partly Cloudy
6:55 AM 39.0 °F 32.8 °F 30.9 °F 73% 29.80 in 10.0 mi NW 9.2 mph 19.6 mph N/A   Partly Cloudy
7:55 AM 37.9 °F 32.1 °F 30.9 °F 76% 29.83 in 10.0 mi NW 8.1 mph - N/A   Clear
8:20 AM 37.4 °F 30.3 °F 30.2 °F 75% 29.83 in 10.0 mi NW 10.4 mph - N/A   Mostly Cloudy
8:55 AM 37.9 °F 31.5 °F 30.0 °F 73% 29.86 in 10.0 mi NW 9.2 mph - N/A   Scattered Clouds
9:55 AM 41.0 °F 34.7 °F 30.9 °F 67% 29.88 in 10.0 mi NNW 10.4 mph - N/A   Scattered Clouds
10:04 AM 41.0 °F 35.2 °F 30.2 °F 65% 29.87 in 10.0 mi NNW 9.2 mph - N/A   Mostly Cloudy
10:52 AM 42.8 °F 37.0 °F 32.0 °F 66% 29.88 in 9.0 mi NNW 10.4 mph 19.6 mph N/A   Scattered Clouds
10:55 AM 43.0 °F 36.8 °F 33.1 °F 68% 29.89 in 10.0 mi NW 11.5 mph 19.6 mph N/A   Scattered Clouds
11:14 AM 42.8 °F 36.2 °F 33.8 °F 70% 29.89 in 10.0 mi NNW 12.7 mph - N/A   Mostly Cloudy
11:35 AM 44.6 °F 38.1 °F 33.8 °F 66% 29.89 in 10.0 mi NW 13.8 mph 20.7 mph N/A   Scattered Clouds
11:55 AM 45.0 °F 38.2 °F 33.1 °F 63% 29.90 in 10.0 mi WNW 15.0 mph 21.9 mph N/A   Partly Cloudy
12:32 PM 46.4 °F 41.1 °F 33.8 °F 62% 29.90 in 9.0 mi NW 11.5 mph - N/A   Mostly Cloudy
12:55 PM 46.9 °F - 35.1 °F 63% 29.91 in 8.0 mi NW 13.8 mph 19.6 mph N/A   Scattered Clouds
1:48 PM 46.4 °F 39.8 °F 33.8 °F 62% 29.90 in 10.0 mi WNW 16.1 mph 23.0 mph N/A   Mostly Cloudy
1:55 PM 46.9 °F - 35.1 °F 63% 29.91 in 10.0 mi WNW 13.8 mph 21.9 mph N/A   Mostly Cloudy
2:13 PM 46.4 °F 39.8 °F 33.8 °F 62% 29.90 in 10.0 mi NW 16.1 mph 24.2 mph N/A   Scattered Clouds
2:55 PM 46.9 °F - 34.0 °F 61% 29.91 in 10.0 mi NW 16.1 mph - N/A   Clear
3:55 PM 46.9 °F - 34.0 °F 61% 29.92 in 10.0 mi NW 15.0 mph 20.7 mph N/A   Clear
4:55 PM 44.1 °F 37.4 °F 33.1 °F 65% 29.94 in 10.0 mi WNW 13.8 mph 25.3 mph N/A   Partly Cloudy
5:31 PM 46.4 °F 40.1 °F 33.8 °F 62% 29.94 in 10.0 mi NW 15.0 mph - N/A   Mostly Cloudy
5:41 PM 44.6 °F 39.2 °F 33.8 °F 66% 29.95 in 10.0 mi WNW 10.4 mph - N/A   Scattered Clouds
5:55 PM 44.1 °F 38.1 °F 33.1 °F 65% 29.96 in 10.0 mi NW 11.5 mph - N/A   Partly Cloudy
6:55 PM 42.1 °F 35.7 °F 33.1 °F 70% 29.98 in 10.0 mi NW 11.5 mph - N/A   Partly Cloudy
7:12 PM 42.8 °F 38.0 °F 33.8 °F 70% 29.97 in 10.0 mi WNW 8.1 mph - N/A   Mostly Cloudy
7:47 PM 42.8 °F 38.6 °F 33.8 °F 70% 29.98 in 10.0 mi WNW 6.9 mph - N/A   Scattered Clouds
7:55 PM 42.1 °F 37.7 °F 33.1 °F 70% 29.99 in 10.0 mi West 6.9 mph - N/A   Mostly Cloudy
8:55 PM 42.1 °F 37.1 °F 33.1 °F 70% 29.99 in 10.0 mi WNW 8.1 mph - N/A   Mostly Cloudy
9:06 PM 41.0 °F 35.8 °F 32.0 °F 70% 29.98 in 10.0 mi WNW 8.1 mph - N/A   Scattered Clouds
9:55 PM 41.0 °F 35.8 °F 32.0 °F 70% 29.99 in 10.0 mi WNW 8.1 mph - N/A   Clear
10:55 PM 35.1 °F 32.2 °F 30.0 °F 82% 29.99 in 10.0 mi WSW 3.5 mph - N/A   Clear
11:55 PM 34.0 °F 31.0 °F 30.0 °F 85% 30.00 in 10.0 mi SW 3.5 mph - N/A   Clear